sat.trackr.live / text

‹ back to catalog

STARLINK-34434

NORAD 64422 · 2025-129L

PAYLOAD ACTIVE UNKNOWN

§ Identity

Operator
Country
US
Launch date
2025-06-17
Launch site
AFWTR
Launch vehicle
Mass (kg)
RCS (m²)

Purposes: comms

External: N2YO · Heavens-Above · Gunter

§ Orbital elements

Epoch: 2026-09-20T12:14:44.260800Z

Period
94.14 min
Inclination
70.0008°
Eccentricity
0.0003343
Mean motion
15.29587216 rev/d
Perigee alt
474.8 km
Apogee alt
479.3 km
Semi-major
6,855.2 km
B*
4.4121e-4
RAAN
301.0893°
Arg perigee
270.8224°
Mean anomaly
89.2568°
Rev number
7,051

§ Raw data

STARLINK-344341 64422U 25129L   26263.51023450  .00012580  00000+0  44121-3 0  99962 64422  70.0008 301.0893 0003343 270.8224  89.2568 15.29587216 70514

JSON: /api/v1/satellites/64422 · /tle

For live sub-satellite position, see the globe view (requires WebGL).

§ Visibility from observer

Set your observer location to see the next 7 days of passes ≥ 10°. The values pass through the URL so the page stays shareable.

No JS? Fill the form by hand. The geolocation button needs JavaScript.